Location: *
(51.0333°S, 178.4667°E)
Time: 21:49:04
(UTC+00:00)

SL-19 R/B - Pass Details

Date: 15 November 2019
Orbit: 796 x 1009 km, 99.4° (Epoch: 11 December)

Event Time Altitude Azimuth Distance (km) Brightness Sun altitude
Exits shadow 11:00:29 34° 42° (NE) 1,316 4.7 -19.6°
Maximum altitude 11:02:45 65° 111° (ESE) 893 4.3 -19.7°
Drops below altitude 10° 11:08:00 10° 191° (SSW) 2,421 7.8 -19.9°
Sets 11:10:23 0° 194° (SSW) 3,372 9.0 -19.9°
